#timestamp,LO_Frequency,Hit,Temp,Hum 
1478505615.6,286046986.9,N,0.0,0.0
1478505635.4,286046987.2,N,0.0,0.0
1478505655.3,286046988.3,N,0.0,0.0
1478505675.1,286046985.7,N,0.0,0.0
1478505676.0,286046985.7,N,0.0,0.0
1478505695.8,286046987.9,N,0.0,0.0
1478505715.7,286046988.3,N,0.0,0.0
1478505735.5,286046988.1,N,0.0,0.0
1478505755.3,286046986.3,N,0.0,0.0
1478505775.2,286046986.5,N,0.0,0.0
1478505795.0,286046988.0,N,0.0,0.0
1478505795.9,286046988.0,N,0.0,0.0
1478505815.7,286046985.8,N,0.0,0.0
1478505835.6,286046986.4,N,0.0,0.0
1478505855.4,286046987.5,N,0.0,0.0
1478505875.3,286046990.3,N,0.0,0.0
1478505895.1,286046983.7,N,0.0,0.0
1478505896.0,286046983.7,N,0.0,0.0
1478505915.8,286046983.9,N,0.0,0.0
1478505935.7,286046984.0,N,0.0,0.0
1478505955.5,286046984.1,N,0.0,0.0
1478505975.3,286046984.9,N,0.0,0.0
1478505995.2,286046983.9,N,0.0,0.0
1478506015.0,286046982.2,N,0.0,0.0
1478506015.9,286046982.2,N,0.0,0.0
1478506035.7,286046982.6,N,0.0,0.0
1478506055.6,286046982.4,N,0.0,0.0
1478506075.4,286046983.8,N,0.0,0.0
1478506095.3,286046984.9,N,0.0,0.0
1478506115.1,286046980.8,N,0.0,0.0
1478506116.0,286046980.8,N,0.0,0.0
1478506135.8,286046985.1,N,0.0,0.0
1478506155.7,286046984.9,N,0.0,0.0
1478506175.5,286046986.7,N,0.0,0.0
1478506195.3,286046983.8,N,0.0,0.0
1478506215.2,286046984.8,N,0.0,0.0
1478506235.9,286046983.9,N,0.0,0.0
1478506255.7,286046985.1,N,0.0,0.0
1478506275.6,286046982.8,N,0.0,0.0
1478506295.4,286046983.0,N,0.0,0.0
1478506315.2,286046982.6,N,0.0,0.0
1478506335.1,286046983.2,N,0.0,0.0
1478506336.0,286046983.2,N,0.0,0.0
1478506355.8,286046981.4,N,0.0,0.0
1478506375.7,286046983.6,N,0.0,0.0
1478506395.5,286046983.6,N,0.0,0.0
1478506415.3,286046982.1,N,0.0,0.0
1478506435.2,286046980.6,N,0.0,0.0
1478506455.9,286046980.7,N,0.0,0.0
1478506475.7,286046980.7,N,0.0,0.0
1478506495.6,286046980.9,N,0.0,0.0
1478506515.4,286046981.0,N,0.0,0.0
1478506535.2,286046981.7,N,0.0,0.0
1478506555.1,286046981.2,N,0.0,0.0
1478506556.0,286046981.2,N,0.0,0.0
1478506575.8,286046981.2,N,0.0,0.0
1478506595.7,286046983.0,N,0.0,0.0
1478506615.5,286046980.9,N,0.0,0.0
1478506635.3,286046983.6,N,0.0,0.0
1478506655.2,286046979.4,N,0.0,0.0
1478506675.9,286046979.2,N,0.0,0.0
1478506695.7,286046981.7,N,0.0,0.0
1478506715.6,286046978.9,N,0.0,0.0
1478506735.4,286046980.9,N,0.0,0.0
1478506755.2,286046981.4,N,0.0,0.0
1478506775.1,286046981.1,N,0.0,0.0
1478506776.0,286046981.1,N,0.0,0.0
1478506795.8,286046981.4,N,0.0,0.0
1478506815.7,286046979.8,N,0.0,0.0
1478506835.5,286046980.3,N,0.0,0.0
1478506855.3,286046979.1,N,0.0,0.0
1478506875.2,286046979.4,N,0.0,0.0
1478506895.9,286046979.8,N,0.0,0.0
1478506915.7,286046979.9,N,0.0,0.0
1478506935.6,286046977.4,N,0.0,0.0
1478506955.4,286046980.3,N,0.0,0.0
1478506975.2,286046980.2,N,0.0,0.0
1478506995.1,286046978.0,N,0.0,0.0
1478506996.0,286046978.0,N,0.0,0.0
1478507015.8,286046977.9,N,0.0,0.0
1478507035.6,286046980.0,N,0.0,0.0
1478507055.5,286046978.7,N,0.0,0.0
1478507075.3,286046981.7,N,0.0,0.0
1478507095.2,286046981.5,N,0.0,0.0
1478507115.9,286046979.8,N,0.0,0.0
1478507135.7,286046977.7,N,0.0,0.0
1478507155.6,286046979.7,N,0.0,0.0
1478507175.4,286046978.9,N,0.0,0.0
1478507195.2,286046981.8,N,0.0,0.0
1478507215.1,286046982.0,N,0.0,0.0
1478507216.0,286046982.0,N,0.0,0.0
1478507235.8,286046981.9,N,0.0,0.0
1478507255.6,286046979.4,N,0.0,0.0
1478507275.5,286046979.8,N,0.0,0.0
1478507295.3,286046979.7,N,0.0,0.0
1478507315.2,286046979.8,N,0.0,0.0
1478507335.9,286046979.4,N,0.0,0.0
1478507355.7,286046980.1,N,0.0,0.0
1478507375.6,286046979.4,N,0.0,0.0
1478507395.4,286046979.8,N,0.0,0.0
1478507415.2,286046981.6,N,0.0,0.0
1478507435.1,286046980.9,N,0.0,0.0
1478507436.0,286046980.9,N,0.0,0.0
1478507455.8,286046985.2,N,0.0,0.0
1478507475.6,286046982.3,N,0.0,0.0
1478507495.5,286046982.1,N,0.0,0.0
1478507515.3,286046987.2,N,0.0,0.0
1478507535.2,286046980.8,N,0.0,0.0
1478507555.9,286046982.6,N,0.0,0.0
1478507575.7,286046983.0,N,0.0,0.0
1478507595.6,286046983.2,N,0.0,0.0
1478507615.4,286046983.1,N,0.0,0.0
1478507635.2,286046981.2,N,0.0,0.0
1478507655.1,286046981.0,N,0.0,0.0
1478507656.0,286046981.0,N,0.0,0.0
1478507675.8,286046983.6,N,0.0,0.0
1478507695.6,286046983.5,N,0.0,0.0
1478507715.5,286046980.5,N,0.0,0.0
1478507735.3,286046981.0,N,0.0,0.0
1478507755.2,286046980.7,N,0.0,0.0
1478507775.9,286046981.4,N,0.0,0.0
1478507795.7,286046981.6,N,0.0,0.0
1478507815.6,286046979.0,N,0.0,0.0
1478507835.4,286046981.7,N,0.0,0.0
1478507855.2,286046981.9,N,0.0,0.0
1478507875.1,286046979.0,N,0.0,0.0
1478507876.0,286046979.0,N,0.0,0.0
1478507895.8,286046983.5,N,0.0,0.0
1478507915.6,286046981.8,N,0.0,0.0
1478507935.5,286046983.6,N,0.0,0.0
1478507955.3,286046982.9,N,0.0,0.0
1478507975.1,286046980.9,N,0.0,0.0
1478507995.9,286046983.0,N,0.0,0.0
1478508015.7,286046980.5,N,0.0,0.0
1478508035.6,286046982.9,N,0.0,0.0
1478508055.4,286046985.1,N,0.0,0.0
1478508075.2,286046985.0,N,0.0,0.0
1478508095.1,286046982.9,N,0.0,0.0
1478508096.0,286046982.9,N,0.0,0.0
1478508115.8,286046983.5,N,0.0,0.0
1478508135.6,286046980.7,N,0.0,0.0
1478508155.5,286046983.6,N,0.0,0.0
1478508175.3,286046981.1,N,0.0,0.0
1478508195.1,286046980.9,N,0.0,0.0
1478508215.9,286046983.2,N,0.0,0.0
1478508235.7,286046982.7,N,0.0,0.0
1478508255.5,286046980.6,N,0.0,0.0
1478508275.4,286046982.3,N,0.0,0.0
1478508295.2,286046982.6,N,0.0,0.0
1478508315.1,286046980.9,N,0.0,0.0
1478508316.0,286046980.9,N,0.0,0.0
1478508335.8,286046983.5,N,0.0,0.0
1478508355.6,286046980.5,N,0.0,0.0
1478508375.5,286046980.8,N,0.0,0.0
1478508395.3,286046981.8,N,0.0,0.0
1478508415.1,286046980.8,N,0.0,0.0
1478508435.9,286046981.5,N,0.0,0.0
1478508455.7,286046981.8,N,0.0,0.0
1478508475.5,286046981.2,N,0.0,0.0
1478508495.4,286046981.0,N,0.0,0.0
1478508515.2,286046981.7,N,0.0,0.0
1478508535.1,286046981.5,N,0.0,0.0
1478508536.0,286046981.5,N,0.0,0.0
1478508555.8,286046979.0,N,0.0,0.0
1478508575.6,286046981.5,N,0.0,0.0
1478508595.5,286046979.2,N,0.0,0.0
1478508615.3,286046979.1,N,0.0,0.0
1478508635.1,286046981.7,N,0.0,0.0
1478508655.9,286046980.7,N,0.0,0.0
1478508675.7,286046980.5,N,0.0,0.0
1478508695.5,286046981.5,N,0.0,0.0
1478508715.4,286046985.2,N,0.0,0.0
1478508735.2,286046983.5,N,0.0,0.0
1478508755.1,286046983.1,N,0.0,0.0
1478508756.0,286046983.1,N,0.0,0.0
1478508775.8,286046985.1,N,0.0,0.0
1478508795.6,286046981.8,N,0.0,0.0
1478508815.5,286046979.3,N,0.0,0.0
1478508835.3,286046982.7,N,0.0,0.0
1478508855.1,286046981.1,N,0.0,0.0
1478508875.9,286046980.8,N,0.0,0.0
1478508895.7,286046982.8,N,0.0,0.0
1478508915.5,286046980.3,N,0.0,0.0
1478508935.4,286046983.5,N,0.0,0.0
1478508955.2,286046982.3,N,0.0,0.0
1478508975.1,286046982.4,N,0.0,0.0
1478508976.0,286046982.4,N,0.0,0.0
1478508995.8,286046985.2,N,0.0,0.0
1478509015.6,286046982.5,N,0.0,0.0
1478509035.5,286046983.5,N,0.0,0.0
1478509055.3,286046980.6,N,0.0,0.0
1478509075.1,286046982.8,N,0.0,0.0
1478509095.9,286046983.1,N,0.0,0.0
1478509115.7,286046985.1,N,0.0,0.0
1478509135.5,286046983.9,N,0.0,0.0
1478509155.4,286046985.0,N,0.0,0.0
1478509175.2,286046982.3,N,0.0,0.0
1478509195.1,286046985.2,N,0.0,0.0
1478509196.0,286046985.2,N,0.0,0.0
